FW7612 Weather Reports


time (UTC)temp
C
wind
direction
speed
KPH
gust
KPH
rain 1hr
cm
rain 24hr
cm
rain mn
cm
humidity
%
barometer
mb
20260505110454 13 194 12.9 32.2 0.00 0.00 0.00 80 1011.8
20260505101954 12 202 11.3 29.0 0.00 0.00 0.00 83 1011.9
20260505101454 11 197 8.0 24.1 0.00 0.00 0.00 84 1011.7
20260505100954 11 191 9.7 27.4 0.00 0.00 0.00 85 1011.6
20260505100454 11 206 12.9 27.4 0.00 0.00 0.00 85 1011.8
20260505095954 11 207 11.3 29.0 0.00 0.00 0.00 86 1011.7
20260505095454 11 200 11.3 25.7 0.00 0.00 0.00 86 1011.7
20260505094954 11 193 12.9 27.4 0.00 0.00 0.00 86 1011.8
20260505094454 11 207 9.7 24.1 0.00 0.00 0.00 86 1011.8
20260505093954 10 194 12.9 25.7 0.00 0.00 0.00 86 1011.8
20260505093454 10 191 8.0 20.9 0.00 0.00 0.00 86 1011.8
20260505092954 10 188 11.3 29.0 0.00 0.00 0.00 86 1011.6
20260505092454 10 196 9.7 19.3 0.00 0.00 0.00 86 1011.7
20260505091954 10 188 9.7 19.3 0.00 0.00 0.00 86 1011.6
20260505091454 10 203 9.7 25.7 0.00 0.00 0.00 86 1011.7
20260505090954 10 201 12.9 19.3 0.00 0.00 0.00 86 1011.7
20260505090454 10 203 8.0 19.3 0.00 0.00 0.00 86 1011.6
20260505085954 10 195 11.3 19.3 0.00 0.00 0.00 86 1011.6
20260505085454 10 193 9.7 20.9 0.00 0.00 0.00 85 1011.7
20260505084954 10 196 11.3 16.1 0.00 0.00 0.00 85 1011.7
20260505084454 11 206 9.7 17.7 0.00 0.00 0.00 85 1011.7
20260505083954 11 205 8.0 19.3 0.00 0.00 0.00 85 1011.6
20260505083454 11 196 9.7 22.5 0.00 0.00 0.00 84 1011.7
20260505082954 11 206 8.0 19.3 0.00 0.00 0.00 84 1011.7
20260505082454 11 200 11.3 24.1 0.00 0.00 0.00 84 1011.7
20260505081954 11 207 12.9 25.7 0.00 0.00 0.00 84 1011.8
20260505081454 11 208 8.0 22.5 0.00 0.00 0.00 83 1011.9
20260505080954 11 209 14.5 24.1 0.00 0.00 0.00 83 1011.9
20260505080454 11 209 12.9 22.5 0.00 0.00 0.00 83 1011.9
20260505075954 11 217 14.5 24.1 0.00 0.00 0.00 83 1011.9
20260505075454 11 212 17.7 25.7 0.00 0.00 0.00 83 1011.9
20260505074954 11 211 11.3 35.4 0.00 0.00 0.00 83 1012.0
20260505074454 11 219 19.3 33.8 0.00 0.00 0.00 83 1012.0
20260505073954 11 218 19.3 35.4 0.00 0.00 0.00 83 1012.1
20260505073454 11 214 11.3 29.0 0.00 0.00 0.00 83 1012.0
20260505072954 11 217 16.1 32.2 0.00 0.00 0.00 83 1012.0
20260505072454 11 214 16.1 29.0 0.00 0.00 0.00 83 1011.9
20260505071954 11 222 16.1 30.6 0.00 0.00 0.00 83 1011.9
20260505071454 11 224 14.5 37.0 0.00 0.00 0.00 83 1011.9
20260505070954 11 217 16.1 40.2 0.00 0.00 0.00 83 1011.9
20260505070454 11 215 16.1 29.0 0.00 0.00 0.00 83 1011.9
20260505065954 11 212 16.1 32.2 0.00 0.00 0.00 83 1011.9
20260505065454 11 210 14.5 29.0 0.00 0.00 0.00 82 1011.9
20260505064954 11 220 17.7 32.2 0.00 0.00 0.00 82 1011.8
20260505064454 11 214 17.7 32.2 0.00 0.00 0.00 82 1011.7
20260505063954 11 217 16.1 40.2 0.00 0.00 0.00 82 1011.8
20260505063454 11 217 19.3 41.8 0.00 0.00 0.00 82 1011.8
20260505062955 11 220 24.1 37.0 0.00 0.00 0.00 82 1011.7
20260505062507 11 220 19.3 41.8 0.00 0.00 0.00 82 1011.7
20260505061954 11 220 20.9 40.2 0.00 0.00 0.00 82 1011.8
20260505061454 11 224 16.1 33.8 0.00 0.00 0.00 82 1011.8
20260505060954 11 221 12.9 32.2 0.00 0.00 0.00 82 1011.8
20260505060454 11 221 17.7 27.4 0.00 0.00 0.00 83 1011.9
20260505055954 11 219 16.1 24.1 0.00 0.00 0.00 83 1011.9
20260505055454 11 226 16.1 30.6 0.00 0.00 0.00 83 1011.9
20260505054954 11 212 14.5 27.4 0.00 0.00 0.00 83 1011.9
20260505054454 11 215 12.9 25.7 0.00 0.00 0.00 84 1011.9
20260505053954 11 215 14.5 25.7 0.00 0.00 0.00 84 1011.9
20260505053454 11 218 16.1 25.7 0.00 0.00 0.00 84 1012.0
20260505052954 11 214 12.9 29.0 0.00 0.00 0.00 84 1012.0
20260505052453 11 215 16.1 30.6 0.00 0.00 0.00 84 1011.9
20260505051954 11 220 14.5 24.1 0.00 0.00 0.00 84 1011.9
20260505051454 11 204 11.3 22.5 0.00 0.00 0.00 84 1011.9
20260505050954 11 214 12.9 27.4 0.00 0.00 0.00 84 1012.0
20260505050453 11 211 11.3 22.5 0.00 0.00 0.00 83 1012.0
20260505041453 11 198 11.3 24.1 0.00 0.00 0.00 81 1012.2
20260505040953 11 202 12.9 25.7 0.00 0.00 0.00 80 1012.3
20260505040453 11 210 16.1 30.6 0.00 0.00 0.00 80 1012.3
20260505035953 11 203 11.3 24.1 0.00 0.00 0.00 80 1012.4
20260505035454 11 213 14.5 24.1 0.00 0.00 0.00 80 1012.4
20260505034953 11 208 14.5 29.0 0.00 0.00 0.00 80 1012.4
20260505034454 11 206 12.9 22.5 0.00 0.00 0.00 80 1012.5
20260505033953 11 206 12.9 24.1 0.00 0.00 0.00 79 1012.5
20260505033454 11 210 11.3 24.1 0.00 0.00 0.00 79 1012.5
20260505032953 11 207 8.0 20.9 0.00 0.00 0.00 78 1012.4
20260505032453 11 204 9.7 30.6 0.00 0.00 0.00 78 1012.4
20260505031953 11 203 9.7 20.9 0.00 0.00 0.00 78 1012.3
20260505031453 11 199 8.0 20.9 0.00 0.00 0.00 77 1012.3
20260505030953 11 206 11.3 22.5 0.00 0.00 0.00 77 1012.5
20260505030353 11 213 12.9 29.0 0.00 0.00 0.00 76 1012.4
20260505025853 11 218 14.5 30.6 0.00 0.00 0.00 76 1012.4
20260505025353 11 207 14.5 29.0 0.00 0.00 0.00 76 1012.5
20260505024854 11 215 14.5 27.4 0.00 0.00 0.00 76 1012.5
20260505024353 11 209 12.9 27.4 0.00 0.00 0.00 76 1012.5
20260505023853 11 213 16.1 29.0 0.00 0.00 0.00 75 1012.5
20260505023353 11 207 16.1 30.6 0.00 0.00 0.00 75 1012.4
20260505022853 11 210 16.1 29.0 0.00 0.00 0.00 75 1012.4
20260505022353 11 216 19.3 33.8 0.00 0.00 0.00 75 1012.5
20260505021853 11 205 17.7 37.0 0.00 0.00 0.00 75 1012.5
20260505021353 12 213 16.1 32.2 0.00 0.00 0.00 75 1012.5
20260505020853 12 208 11.3 37.0 0.00 0.00 0.00 74 1012.4
20260505020353 12 219 19.3 38.6 0.00 0.00 0.00 74 1012.4
20260505015853 12 209 17.7 38.6 0.00 0.00 0.00 74 1012.3
20260505015353 12 215 22.5 43.5 0.00 0.00 0.00 74 1012.2
20260505014853 12 218 17.7 38.6 0.00 0.00 0.00 74 1012.2
20260505014353 12 215 14.5 33.8 0.00 0.00 0.00 73 1012.2
20260505013853 12 220 20.9 33.8 0.00 0.00 0.00 73 1012.1
20260505013353 12 220 24.1 40.2 0.00 0.00 0.00 72 1012.1
20260505012853 12 218 22.5 43.5 0.00 0.00 0.00 72 1012.0
20260505012353 12 214 20.9 45.1 0.00 0.00 0.00 71 1011.8
20260505011853 12 215 19.3 40.2 0.00 0.00 0.00 70 1011.7
20260505011353 12 219 24.1 46.7 0.00 0.00 0.00 70 1011.6
20260505010853 12 219 20.9 35.4 0.00 0.00 0.00 69 1011.5
20260505010353 12 220 16.1 37.0 0.00 0.00 0.00 68 1011.6
20260505005853 12 216 22.5 41.8 0.00 0.00 0.00 68 1011.5
20260505005353 12 219 24.1 43.5 0.00 0.00 0.00 68 1011.4
20260505004853 12 218 16.1 45.1 0.00 0.00 0.00 67 1011.4
20260505004353 12 211 14.5 45.1 0.00 0.00 0.00 67 1011.3
20260505003853 12 212 20.9 46.7 0.00 0.00 0.00 66 1011.3
20260505003353 12 215 20.9 41.8 0.00 0.00 0.00 65 1011.2
20260505002853 12 213 19.3 40.2 0.00 0.00 0.00 63 1011.1
20260505002353 12 211 22.5 46.7 0.00 0.00 0.00 62 1011.0
20260505001853 12 215 20.9 46.7 0.00 0.00 0.00 62 1010.8
20260505001353 12 220 20.9 43.5 0.00 0.00 0.00 61 1010.8
20260505000853 12 213 19.3 38.6 0.00 0.00 0.00 61 1010.7
20260505000353 12 226 22.5 46.7 0.00 0.00 0.00 60 1010.7
20260504235853 12 218 24.1 41.8 0.00 0.00 0.00 60 1010.6
20260504235353 12 219 20.9 43.5 0.00 0.00 0.00 60 1010.5
20260504234853 12 220 20.9 40.2 0.00 0.00 0.00 59 1010.5
20260504234353 12 221 25.7 48.3 0.00 0.00 0.00 59 1010.5
20260504233853 13 217 19.3 41.8 0.00 0.00 0.00 59 1010.4
20260504233353 13 216 20.9 38.6 0.00 0.00 0.00 58 1010.4
20260504232853 13 217 24.1 56.3 0.00 0.00 0.00 57 1010.4
20260504232353 13 218 17.7 32.2 0.00 0.00 0.00 57 1010.3
20260504231853 13 222 24.1 45.1 0.00 0.00 0.00 57 1010.2
20260504231353 13 214 19.3 51.5 0.00 0.00 0.00 57 1010.2
20260504230853 13 215 24.1 41.8 0.00 0.00 0.00 56 1010.1
20260504230353 13 218 24.1 45.1 0.00 0.00 0.00 57 1010.1
20260504225853 14 218 20.9 43.5 0.00 0.00 0.00 57 1010.0
20260504225353 14 213 22.5 46.7 0.00 0.00 0.00 57 1010.0
20260504224853 14 212 22.5 59.5 0.00 0.00 0.00 56 1010.0
20260504224353 14 210 19.3 48.3 0.00 0.00 0.00 56 1010.0
20260504223853 14 215 24.1 45.1 0.00 0.00 0.00 55 1010.0
20260504223352 15 215 24.1 46.7 0.00 0.00 0.00 55 1009.9
20260504222853 15 220 24.1 43.5 0.00 0.00 0.00 54 1009.9
20260504222353 15 213 22.5 43.5 0.00 0.00 0.00 55 1010.0
20260504221853 15 206 19.3 45.1 0.00 0.00 0.00 54 1010.1
20260504221353 15 203 16.1 41.8 0.00 0.00 0.00 54 1010.1
20260504220852 15 210 27.4 46.7 0.00 0.00 0.00 54 1009.8
20260504220353 15 212 22.5 48.3 0.00 0.00 0.00 53 1009.8
20260504215853 16 209 19.3 40.2 0.00 0.00 0.00 53 1010.0
20260504215353 16 214 22.5 46.7 0.00 0.00 0.00 51 1010.1
20260504214853 16 222 17.7 49.9 0.00 0.00 0.00 51 1010.1
20260504214352 16 214 24.1 48.3 0.00 0.00 0.00 51 1010.1
20260504213852 16 214 25.7 46.7 0.00 0.00 0.00 51 1010.0
20260504213353 16 217 25.7 48.3 0.00 0.00 0.00 51 1009.9
20260504212852 16 227 20.9 45.1 0.00 0.00 0.00 50 1010.0
20260504212353 16 207 19.3 46.7 0.00 0.00 0.00 50 1010.1
20260504211852 16 212 22.5 49.9 0.00 0.00 0.00 50 1010.2
20260504211353 16 216 27.4 45.1 0.00 0.00 0.00 49 1010.0
20260504210853 16 220 32.2 51.5 0.00 0.00 0.00 48 1009.9
20260504210353 16 216 24.1 46.7 0.00 0.00 0.00 48 1009.9
20260504205853 17 221 24.1 51.5 0.00 0.00 0.00 48 1009.9
20260504205352 16 221 32.2 54.7 0.00 0.00 0.00 47 1009.8
20260504204853 17 212 24.1 51.5 0.00 0.00 0.00 47 1009.7
20260504204352 17 220 25.7 49.9 0.00 0.00 0.00 44 1009.8
20260504203853 17 211 22.5 49.9 0.00 0.00 0.00 45 1009.7
20260504203352 17 216 27.4 57.9 0.00 0.00 0.00 41 1009.5
20260504202852 18 219 19.3 41.8 0.00 0.00 0.00 42 1009.5
20260504202410 17 234 24.1 67.6 0.00 0.00 0.00 40 1009.5
20260504201852 17 224 38.6 66.0 0.00 0.00 0.00 39 1009.4
20260504201352 17 235 35.4 69.2 0.00 0.00 0.00 39 1009.5
20260504200852 17 229 37.0 66.0 0.00 0.00 0.00 40 1009.6
20260504200352 17 226 35.4 66.0 0.00 0.00 0.00 39 1009.4
20260504195852 17 228 24.1 67.6 0.00 0.00 0.00 41 1009.7
20260504195352 17 233 37.0 66.0 0.00 0.00 0.00 38 1009.8
20260504194852 17 227 33.8 66.0 0.00 0.00 0.00 39 1009.7
20260504194353 17 235 25.7 64.4 0.00 0.00 0.00 40 1009.6
20260504193852 17 226 33.8 75.6 0.00 0.00 0.00 39 1009.2
20260504193352 17 236 29.0 67.6 0.00 0.00 0.00 38 1009.6
20260504192852 18 236 37.0 70.8 0.00 0.00 0.00 37 1009.6
20260504192352 18 237 33.8 56.3 0.00 0.00 0.00 38 1009.4
20260504191852 18 236 24.1 54.7 0.00 0.00 0.00 40 1009.7
20260504191352 17 239 37.0 66.0 0.00 0.00 0.00 40 1009.7
20260504190852 17 248 32.2 72.4 0.00 0.00 0.00 42 1009.6
20260504190352 17 238 32.2 61.2 0.00 0.00 0.00 40 1009.8
20260504185852 18 232 29.0 49.9 0.00 0.00 0.00 40 1010.0
20260504185352 18 232 32.2 57.9 0.00 0.00 0.00 40 1010.1
20260504184852 17 243 35.4 59.5 0.00 0.00 0.00 39 1009.9
20260504184353 18 236 30.6 69.2 0.00 0.00 0.00 41 1009.9
20260504183852 18 247 25.7 59.5 0.00 0.00 0.00 41 1009.9
20260504183352 17 245 35.4 54.7 0.00 0.00 0.00 42
20260504182852 18 234 27.4 56.3 0.00 0.00 0.00 42 1009.7
20260504182352 18 240 25.7 57.9 0.00 0.00 0.00 43 1009.7
20260504181852 18 228 27.4 53.1 0.00 0.00 0.00 43 1009.6
20260504181352 18 230 29.0 57.9 0.00 0.00 0.00 43 1009.7
20260504180852 18 231 29.0 54.7 0.00 0.00 0.00 42 1009.2
20260504180352 18 234 27.4 57.9 0.00 0.00 0.00 41 1009.7
20260504175852 18 232 27.4 53.1 0.00 0.00 0.00 40 1009.8
20260504175352 18 230 33.8 61.2 0.00 0.00 0.00 40 1009.7
20260504174852 18 238 24.1 56.3 0.00 0.00 0.00 39 1009.8
20260504174352 18 247 30.6 53.1 0.00 0.00 0.00 40 1009.6
20260504173852 18 239 33.8 70.8 0.00 0.00 0.00 38 1009.8
20260504173352 18 237 33.8 56.3 0.00 0.00 0.00 38 1010.0
20260504172852 18 239 30.6 69.2 0.00 0.00 0.00 36 1009.8
20260504172352 18 238 30.6 57.9 0.00 0.00 0.00 37 1009.9
20260504171852 18 254 30.6 48.3 0.00 0.00 0.00 43 1009.8
20260504171352 17 246 29.0 69.2 0.00 0.00 0.00 41 1009.7
20260504170852 17 245 29.0 59.5 0.00 0.00 0.00 42 1009.9
20260504170352 17 249 32.2 67.6 0.00 0.00 0.00 39 1009.7
20260504160252 17 238 32.2 49.9 0.00 0.00 0.00 41 1010.3
20260504150702 17 252 20.9 38.6 0.00 0.00 0.00 46 1010.8
20260504150152 17 244 17.7 41.8 0.00 0.00 0.00 47 1010.7
20260504141151 16 251 22.5 41.8 0.00 0.00 0.00 55 1011.1
20260504140652 16 248 29.0 38.6 0.00 0.00 0.00 52 1011.0
20260504140151 16 250 22.5 40.2 0.00 0.00 0.00 53 1011.0
20260504130653 14 258 27.4 37.0 0.00 0.00 0.00 57 1011.4
20260504130151 14 249 22.5 38.6 0.00 0.00 0.00 55 1011.4
20260504120151 12 240 19.3 30.6 0.00 0.00 0.00 61 1011.5